Location: Baix
(44.7118°N, 4.7648°E)
Time: 10:01:42
(UTC+00:00)

Vanguard 2 Rocket - Pass Details

Date: 29 November 2020
Orbit: 554 x 3325 km, 32.9° (Epoch: 21 January)

Event Time Altitude Azimuth Distance (km) Brightness Sun altitude
Rises 08:29:48 0° 245° (WSW) 7,205 11.3 12.1°
Reaches altitude 10° 08:34:43 10° 241° (WSW) 6,267 11.1 12.7°
Maximum altitude 08:53:54 53° 173° (S) 3,452 10.6 14.8°
Drops below altitude 10° 09:08:06 10° 102° (ESE) 4,786 11.4 16.3°
Sets 09:11:17 0° 98° (E) 5,472 11.5 16.6°
